Hourly Weather Jumprava

Today, 26 November, Thursday

Time Temperature Precipitation Wind Pressure Humidity
00:00 +7°C° 0 mm 3 mps 756 mmHg 88%
01:00 +7°C° 0 mm 3 mps 756 mmHg 86%
02:00 +6°C° 0 mm 4 mps 756 mmHg 85%
03:00 +5°C° 0 mm 4 mps 755 mmHg 85%
04:00 +5°C° 0 mm 4 mps 755 mmHg 86%
05:00 +5°C° 0 mm 4 mps 754 mmHg 86%
06:00 +4°C° 0 mm 4 mps 754 mmHg 86%
07:00 +4°C° 0 mm 4 mps 754 mmHg 86%
08:00 +3°C° 0 mm 4 mps 754 mmHg 87%
09:00 +3°C° 0 mm 4 mps 754 mmHg 86%
10:00 +3°C° 0 mm 4 mps 754 mmHg 86%
11:00 +3°C° 0 mm 4 mps 753 mmHg 85%
12:00 +3°C° 0 mm 4 mps 753 mmHg 86%
13:00 +3°C° 0 mm 4 mps 753 mmHg 87%
14:00 +1°C° 0 mm 4 mps 753 mmHg 85%
15:00 +3°C° 0 mm 4 mps 752 mmHg 86%
16:00 +3°C° 0 mm 4 mps 752 mmHg 88%
17:00 +3°C° 0 mm 4 mps 751 mmHg 90%
18:00 +3°C° 0.1 mm 4 mps 751 mmHg 90%
19:00 +4°C° 0.1 mm 4 mps 751 mmHg 90%
20:00 +4°C° 0.1 mm 4 mps 751 mmHg 91%
21:00 +4°C° 0.4 mm 4 mps 750 mmHg 92%
22:00 +4°C° 0.4 mm 4 mps 750 mmHg 92%
23:00 +4°C° 0.4 mm 4 mps 749 mmHg 93%

Tomorrow, 27 November, Friday

Time Temperature Precipitation Wind Pressure Humidity
00:00 +4°C° 0.6 mm 3 mps 749 mmHg 94%
01:00 +4°C° 0.6 mm 3 mps 749 mmHg 94%
02:00 +4°C° 0.6 mm 3 mps 749 mmHg 95%
03:00 +4°C° 0.7 mm 3 mps 749 mmHg 92%
04:00 +4°C° 0.7 mm 3 mps 749 mmHg 90%
05:00 +4°C° 0.7 mm 4 mps 749 mmHg 87%
06:00 +3°C° 0.1 mm 3 mps 749 mmHg 86%
07:00 +2°C° 0.1 mm 3 mps 749 mmHg 85%
08:00 +2°C° 0.1 mm 3 mps 749 mmHg 83%
09:00 +2°C° 0 mm 3 mps 750 mmHg 84%
10:00 +1°C° 0 mm 4 mps 750 mmHg 84%
11:00 +1°C° 0 mm 4 mps 751 mmHg 84%
12:00 0°C° 0 mm 4 mps 751 mmHg 80%
13:00 0°C° 0 mm 4 mps 752 mmHg 76%
14:00 0°C° 0 mm 4 mps 752 mmHg 73%
15:00 0°C° 0 mm 3 mps 752 mmHg 76%
16:00 0°C° 0 mm 3 mps 752 mmHg 80%
17:00 +1°C° 0 mm 2 mps 752 mmHg 84%
18:00 -1°C° 0 mm 2 mps 753 mmHg 85%
19:00 -1°C° 0 mm 2 mps 753 mmHg 85%
20:00 -1°C° 0 mm 3 mps 754 mmHg 86%
21:00 -1°C° 0 mm 3 mps 754 mmHg 86%
22:00 -1°C° 0 mm 3 mps 755 mmHg 85%
23:00 -1°C° 0 mm 2 mps 755 mmHg 85%

Day after tomorrow, 28 November, Saturday

Time Temperature Precipitation Wind Pressure Humidity
00:00 -1°C° 0 mm 2 mps 756 mmHg 86%
01:00 -2°C° 0 mm 2 mps 756 mmHg 86%
02:00 -2°C° 0 mm 2 mps 757 mmHg 87%
03:00 -1°C° 0 mm 3 mps 757 mmHg 87%
04:00 -1°C° 0 mm 3 mps 757 mmHg 87%
05:00 0°C° 0 mm 3 mps 757 mmHg 86%
06:00 0°C° 0 mm 3 mps 757 mmHg 86%
07:00 0°C° 0 mm 3 mps 758 mmHg 85%
08:00 0°C° 0 mm 3 mps 758 mmHg 84%
09:00 +1°C° 0 mm 3 mps 758 mmHg 85%
10:00 +1°C° 0 mm 3 mps 758 mmHg 85%
11:00 +1°C° 0 mm 3 mps 759 mmHg 86%
12:00 +1°C° 0 mm 3 mps 759 mmHg 87%
13:00 +1°C° 0 mm 3 mps 759 mmHg 87%
14:00 +1°C° 0 mm 3 mps 759 mmHg 88%
15:00 +1°C° 0 mm 3 mps 759 mmHg 86%
16:00 +1°C° 0 mm 3 mps 759 mmHg 83%
17:00 0°C° 0 mm 3 mps 760 mmHg 81%
18:00 0°C° 0 mm 3 mps 760 mmHg 82%
19:00 0°C° 0 mm 3 mps 760 mmHg 83%
20:00 -1°C° 0 mm 3 mps 761 mmHg 84%
21:00 -1°C° 0 mm 3 mps 761 mmHg 85%
22:00 -1°C° 0 mm 2 mps 761 mmHg 86%
23:00 -1°C° 0 mm 2 mps 761 mmHg 86%

29 November, Sunday

Time Temperature Precipitation Wind Pressure Humidity
00:00 -1°C° 0 mm 2 mps 761 mmHg 87%
01:00 -1°C° 0 mm 2 mps 761 mmHg 87%
02:00 -1°C° 0 mm 2 mps 762 mmHg 87%
03:00 -1°C° 0 mm 2 mps 762 mmHg 88%
04:00 -1°C° 0 mm 2 mps 761 mmHg 89%
05:00 -1°C° 0 mm 2 mps 761 mmHg 90%
06:00 -1°C° 0 mm 2 mps 762 mmHg 88%
07:00 -1°C° 0 mm 3 mps 762 mmHg 87%
08:00 -1°C° 0 mm 3 mps 762 mmHg 85%
09:00 0°C° 0 mm 3 mps 762 mmHg 84%
10:00 0°C° 0 mm 3 mps 762 mmHg 82%
11:00 0°C° 0 mm 3 mps 762 mmHg 80%
12:00 0°C° 0 mm 3 mps 762 mmHg 80%
13:00 +1°C° 0 mm 2 mps 762 mmHg 79%
14:00 +1°C° 0 mm 2 mps 762 mmHg 79%
15:00 +1°C° 0 mm 2 mps 761 mmHg 79%
16:00 +1°C° 0 mm 2 mps 761 mmHg 80%
17:00 -1°C° 0 mm 3 mps 761 mmHg 80%
18:00 -1°C° 0 mm 2 mps 760 mmHg 83%
19:00 -1°C° 0 mm 2 mps 760 mmHg 85%
20:00 -2°C° 0 mm 2 mps 760 mmHg 87%
21:00 -2°C° 0.1 mm 3 mps 759 mmHg 89%
22:00 -2°C° 0.1 mm 3 mps 759 mmHg 90%
23:00 -2°C° 0.1 mm 3 mps 759 mmHg 92%

30 November, Monday

Time Temperature Precipitation Wind Pressure Humidity
00:00 -2°C° 0.3 mm 3 mps 758 mmHg 93%
01:00 -2°C° 0.3 mm 3 mps 758 mmHg 93%
02:00 -2°C° 0.3 mm 3 mps 758 mmHg 94%
03:00 -2°C° 0.4 mm 3 mps 757 mmHg 95%
04:00 -2°C° 0.4 mm 3 mps 757 mmHg 95%
05:00 -2°C° 0.4 mm 3 mps 757 mmHg 96%
06:00 -1°C° 0.3 mm 2 mps 757 mmHg 96%
07:00 -1°C° 0.3 mm 2 mps 757 mmHg 96%
08:00 +1°C° 0.3 mm 1 mps 757 mmHg 96%
09:00 +1°C° 0.2 mm 1 mps 757 mmHg 96%
10:00 +1°C° 0.2 mm 1 mps 758 mmHg 96%
11:00 +2°C° 0.2 mm 1 mps 758 mmHg 96%
12:00 +2°C° 0.1 mm 1 mps 758 mmHg 96%
13:00 +2°C° 0.1 mm 1 mps 758 mmHg 96%
14:00 +1°C° 0.1 mm 2 mps 758 mmHg 97%
15:00 -1°C° 0.4 mm 2 mps 758 mmHg 96%
16:00 -1°C° 0.4 mm 3 mps 759 mmHg 95%
17:00 -1°C° 0.4 mm 3 mps 759 mmHg 94%
18:00 -1°C° 0 mm 3 mps 759 mmHg 93%
19:00 -2°C° 0 mm 3 mps 760 mmHg 92%
20:00 -2°C° 0 mm 3 mps 760 mmHg 91%
21:00 -3°C° 0 mm 4 mps 760 mmHg 91%
22:00 -2°C° 0 mm 4 mps 761 mmHg 92%
23:00 -2°C° 0 mm 4 mps 761 mmHg 92%

1 December, Tuesday

Time Temperature Precipitation Wind Pressure Humidity
00:00 -2°C° 0 mm 4 mps 761 mmHg 93%
01:00 -2°C° 0 mm 4 mps 761 mmHg 93%
02:00 -2°C° 0 mm 4 mps 761 mmHg 94%
03:00 -2°C° 0 mm 4 mps 761 mmHg 93%
04:00 -2°C° 0 mm 4 mps 761 mmHg 93%
05:00 -2°C° 0 mm 4 mps 761 mmHg 92%
06:00 -2°C° 0.1 mm 5 mps 761 mmHg 93%
07:00 -2°C° 0.1 mm 5 mps 761 mmHg 94%
08:00 -2°C° 0.1 mm 5 mps 761 mmHg 95%
09:00 -2°C° 0.1 mm 5 mps 761 mmHg 95%
10:00 -1°C° 0.1 mm 5 mps 761 mmHg 95%
11:00 -1°C° 0.1 mm 5 mps 761 mmHg 96%
12:00 -1°C° 0.1 mm 5 mps 761 mmHg 95%
13:00 0°C° 0.1 mm 5 mps 761 mmHg 95%
14:00 0°C° 0.1 mm 5 mps 761 mmHg 95%
15:00 0°C° 0.1 mm 4 mps 761 mmHg 95%
16:00 -1°C° 0.1 mm 4 mps 761 mmHg 95%
17:00 -1°C° 0.1 mm 4 mps 761 mmHg 95%
18:00 -1°C° 0 mm 4 mps 761 mmHg 94%
19:00 -1°C° 0 mm 4 mps 762 mmHg 93%
20:00 -1°C° 0 mm 4 mps 762 mmHg 93%
21:00 0°C° 0 mm 3 mps 762 mmHg 92%
22:00 0°C° 0 mm 3 mps 762 mmHg 92%
23:00 -1°C° 0 mm 3 mps 763 mmHg 92%
Show more